When you browse on this site, cookies collect data to enhance your experience and personalize the content and advertising you see.
Visit our Privacy Policy to learn more. By continuing to use the site, you agree to this use of cookies and data.
  • In Hungary
  • List of Countries
  • For 7 days
  • Water Temperature
  • Weather Map
  • News
  • Weather Widgets
  • user-avatar
    Login

    Hourly Weather Kamenichi

    Today, 3 April, Friday

    Time Temperature Precipitation Wind Pressure Humidity
    00:00 +1°C° 0 mm 3 mps 740 mmHg 85%
    01:00 0°C° 0 mm 4 mps 740 mmHg 87%
    02:00 -1°C° 0 mm 4 mps 739 mmHg 88%
    03:00 -1°C° 0 mm 4 mps 739 mmHg 85%
    04:00 0°C° 0 mm 5 mps 738 mmHg 83%
    05:00 0°C° 0 mm 5 mps 738 mmHg 80%
    06:00 +1°C° 0 mm 6 mps 738 mmHg 75%
    07:00 +1°C° 0 mm 6 mps 738 mmHg 70%
    08:00 +2°C° 0 mm 7 mps 738 mmHg 65%
    09:00 +3°C° 0 mm 7 mps 737 mmHg 63%
    10:00 +4°C° 0 mm 8 mps 737 mmHg 61%
    11:00 +5°C° 0 mm 8 mps 737 mmHg 59%
    12:00 +6°C° 0.1 mm 8 mps 737 mmHg 61%
    13:00 +6°C° 0.1 mm 8 mps 738 mmHg 63%
    14:00 +6°C° 0.1 mm 8 mps 738 mmHg 65%
    15:00 +6°C° 0.2 mm 7 mps 738 mmHg 64%
    16:00 +5°C° 0.2 mm 7 mps 738 mmHg 63%
    17:00 +5°C° 0.2 mm 6 mps 738 mmHg 62%
    18:00 +4°C° 0 mm 6 mps 739 mmHg 64%
    19:00 +3°C° 0 mm 5 mps 740 mmHg 66%
    20:00 +3°C° 0 mm 4 mps 741 mmHg 68%
    21:00 +1°C° 0 mm 4 mps 741 mmHg 70%
    22:00 +1°C° 0 mm 4 mps 742 mmHg 73%
    23:00 +1°C° 0 mm 4 mps 742 mmHg 75%

    Tomorrow, 4 April, Saturday

    Time Temperature Precipitation Wind Pressure Humidity
    00:00 0°C° 0 mm 4 mps 743 mmHg 77%
    01:00 0°C° 0 mm 4 mps 744 mmHg 78%
    02:00 -1°C° 0 mm 4 mps 744 mmHg 79%
    03:00 -1°C° 0 mm 4 mps 745 mmHg 79%
    04:00 -1°C° 0 mm 4 mps 745 mmHg 80%
    05:00 -2°C° 0 mm 4 mps 745 mmHg 80%
    06:00 -1°C° 0 mm 5 mps 746 mmHg 75%
    07:00 0°C° 0 mm 5 mps 747 mmHg 71%
    08:00 +1°C° 0 mm 6 mps 747 mmHg 67%
    09:00 +1°C° 0 mm 5 mps 748 mmHg 62%
    10:00 +2°C° 0 mm 5 mps 748 mmHg 57%
    11:00 +3°C° 0 mm 5 mps 749 mmHg 53%
    12:00 +5°C° 0 mm 5 mps 749 mmHg 48%
    13:00 +6°C° 0 mm 5 mps 750 mmHg 44%
    14:00 +7°C° 0 mm 5 mps 750 mmHg 39%
    15:00 +6°C° 0.1 mm 5 mps 750 mmHg 40%
    16:00 +6°C° 0.1 mm 5 mps 750 mmHg 42%
    17:00 +6°C° 0.1 mm 5 mps 751 mmHg 43%
    18:00 +5°C° 0 mm 4 mps 751 mmHg 49%
    19:00 +3°C° 0 mm 4 mps 752 mmHg 55%
    20:00 +2°C° 0 mm 3 mps 752 mmHg 61%
    21:00 +1°C° 0 mm 4 mps 753 mmHg 62%
    22:00 0°C° 0 mm 4 mps 753 mmHg 63%
    23:00 0°C° 0 mm 4 mps 754 mmHg 65%

    Day after tomorrow, 5 April, Sunday

    Time Temperature Precipitation Wind Pressure Humidity
    00:00 -1°C° 0 mm 4 mps 755 mmHg 65%
    01:00 -2°C° 0 mm 4 mps 755 mmHg 66%
    02:00 -2°C° 0 mm 4 mps 756 mmHg 67%
    03:00 -2°C° 0 mm 4 mps 756 mmHg 68%
    04:00 -3°C° 0 mm 4 mps 757 mmHg 70%
    05:00 -3°C° 0 mm 4 mps 758 mmHg 72%
    06:00 -2°C° 0 mm 4 mps 759 mmHg 64%
    07:00 -1°C° 0 mm 4 mps 759 mmHg 56%
    08:00 0°C° 0 mm 5 mps 760 mmHg 48%
    09:00 +1°C° 0 mm 5 mps 760 mmHg 43%
    10:00 +2°C° 0 mm 5 mps 761 mmHg 38%
    11:00 +3°C° 0 mm 5 mps 761 mmHg 33%
    12:00 +5°C° 0 mm 5 mps 762 mmHg 33%
    13:00 +5°C° 0 mm 4 mps 762 mmHg 32%
    14:00 +6°C° 0 mm 4 mps 762 mmHg 32%
    15:00 +6°C° 0 mm 4 mps 762 mmHg 33%
    16:00 +6°C° 0 mm 4 mps 762 mmHg 34%
    17:00 +7°C° 0 mm 3 mps 762 mmHg 35%
    18:00 +4°C° 0 mm 3 mps 762 mmHg 40%
    19:00 +4°C° 0 mm 2 mps 762 mmHg 45%
    20:00 +3°C° 0 mm 1 mps 763 mmHg 49%
    21:00 +3°C° 0 mm 1 mps 763 mmHg 50%
    22:00 +2°C° 0 mm 1 mps 763 mmHg 51%
    23:00 +2°C° 0 mm 1 mps 763 mmHg 52%

    6 April, Monday

    Time Temperature Precipitation Wind Pressure Humidity
    00:00 +2°C° 0 mm 1 mps 764 mmHg 53%
    01:00 +2°C° 0 mm 1 mps 764 mmHg 53%
    02:00 +1°C° 0 mm 1 mps 764 mmHg 53%
    03:00 +1°C° 0 mm 1 mps 764 mmHg 53%
    04:00 +1°C° 0 mm 1 mps 764 mmHg 54%
    05:00 +1°C° 0 mm 1 mps 764 mmHg 54%
    06:00 +1°C° 0 mm 2 mps 765 mmHg 51%
    07:00 +3°C° 0 mm 2 mps 765 mmHg 48%
    08:00 +4°C° 0 mm 2 mps 765 mmHg 44%
    09:00 +6°C° 0 mm 2 mps 765 mmHg 41%
    10:00 +7°C° 0 mm 2 mps 765 mmHg 37%
    11:00 +9°C° 0 mm 3 mps 765 mmHg 33%
    12:00 +9°C° 0 mm 3 mps 765 mmHg 32%
    13:00 +10°C° 0 mm 3 mps 764 mmHg 31%
    14:00 +11°C° 0 mm 3 mps 764 mmHg 30%
    15:00 +11°C° 0 mm 3 mps 764 mmHg 32%
    16:00 +10°C° 0 mm 3 mps 763 mmHg 34%
    17:00 +10°C° 0 mm 3 mps 763 mmHg 36%
    18:00 +9°C° 0 mm 2 mps 763 mmHg 41%
    19:00 +7°C° 0 mm 2 mps 763 mmHg 46%
    20:00 +5°C° 0 mm 2 mps 763 mmHg 51%
    21:00 +5°C° 0 mm 2 mps 763 mmHg 53%
    22:00 +4°C° 0 mm 2 mps 763 mmHg 55%
    23:00 +3°C° 0 mm 2 mps 763 mmHg 57%

    7 April, Tuesday

    Time Temperature Precipitation Wind Pressure Humidity
    00:00 +3°C° 0 mm 2 mps 762 mmHg 59%
    01:00 +3°C° 0 mm 2 mps 762 mmHg 61%
    02:00 +2°C° 0 mm 2 mps 762 mmHg 63%
    03:00 +2°C° 0 mm 2 mps 762 mmHg 65%
    04:00 +1°C° 0 mm 2 mps 762 mmHg 67%
    05:00 +1°C° 0 mm 2 mps 762 mmHg 69%
    06:00 +2°C° 0 mm 3 mps 762 mmHg 64%
    07:00 +3°C° 0 mm 3 mps 762 mmHg 59%
    08:00 +4°C° 0 mm 3 mps 761 mmHg 54%
    09:00 +7°C° 0 mm 3 mps 761 mmHg 49%
    10:00 +8°C° 0 mm 4 mps 761 mmHg 45%
    11:00 +11°C° 0 mm 4 mps 760 mmHg 41%
    12:00 +13°C° 0 mm 4 mps 760 mmHg 37%
    13:00 +14°C° 0 mm 5 mps 760 mmHg 34%
    14:00 +15°C° 0 mm 5 mps 760 mmHg 31%
    15:00 +15°C° 0 mm 5 mps 759 mmHg 35%
    16:00 +15°C° 0 mm 4 mps 759 mmHg 39%
    17:00 +16°C° 0 mm 3 mps 759 mmHg 43%
    18:00 +13°C° 0 mm 3 mps 758 mmHg 49%
    19:00 +11°C° 0 mm 3 mps 758 mmHg 56%
    20:00 +9°C° 0 mm 3 mps 758 mmHg 62%
    21:00 +8°C° 0 mm 3 mps 758 mmHg 65%
    22:00 +8°C° 0 mm 3 mps 758 mmHg 68%
    23:00 +7°C° 0 mm 3 mps 758 mmHg 71%

    8 April, Wednesday

    Time Temperature Precipitation Wind Pressure Humidity
    00:00 +7°C° 0 mm 3 mps 758 mmHg 71%
    01:00 +5°C° 0 mm 3 mps 758 mmHg 72%
    02:00 +5°C° 0 mm 3 mps 758 mmHg 72%
    03:00 +5°C° 0 mm 3 mps 758 mmHg 74%
    04:00 +4°C° 0 mm 3 mps 758 mmHg 77%
    05:00 +5°C° 0 mm 2 mps 758 mmHg 79%
    06:00 +5°C° 0 mm 3 mps 758 mmHg 77%
    07:00 +7°C° 0 mm 3 mps 758 mmHg 76%
    08:00 +9°C° 0 mm 3 mps 758 mmHg 74%
    09:00 +10°C° 0 mm 4 mps 758 mmHg 68%
    10:00 +11°C° 0 mm 4 mps 758 mmHg 63%
    11:00 +13°C° 0 mm 4 mps 759 mmHg 58%
    12:00 +13°C° 0 mm 4 mps 759 mmHg 51%
    13:00 +14°C° 0 mm 4 mps 759 mmHg 45%
    14:00 +15°C° 0 mm 4 mps 759 mmHg 39%
    15:00 +14°C° 0 mm 4 mps 759 mmHg 39%
    16:00 +14°C° 0 mm 3 mps 758 mmHg 39%
    17:00 +13°C° 0 mm 3 mps 758 mmHg 39%
    18:00 +12°C° 0 mm 3 mps 758 mmHg 43%
    19:00 +10°C° 0 mm 2 mps 759 mmHg 48%
    20:00 +8°C° 0 mm 2 mps 759 mmHg 52%
    21:00 +8°C° 0 mm 2 mps 759 mmHg 54%
    22:00 +8°C° 0 mm 1 mps 759 mmHg 55%
    23:00 +7°C° 0 mm 1 mps 759 mmHg 56%
    Show more